Location: Izdebno
(52.6670°N, 16.2170°E)
Time: 04:44:45
(UTC+02:00)

Transit 2A - Pass Details

Date: 24 February 2024
Orbit: 596 x 956 km, 66.7° (Epoch: 21 April)

Event Time Altitude Azimuth Distance (km) Brightness Sun altitude
Rises 23:08:14 0° 286° (WNW) 2,847 - -45.0°
Reaches altitude 10° 23:11:17 10° 309° (NW) 1,963 - -45.2°
Maximum altitude 23:13:58 16° 347° (NNW) 1,650 - -45.3°
Drops below altitude 10° 23:16:43 10° 25° (NNE) 2,031 - -45.5°
Sets 23:19:58 0° 48° (NE) 3,002 - -45.6°
